Mullan Pass, MT

11:19 AM MDT on April 24, 2017 (GMT -0600)
Mullan Pass

Weather History for KMLP - October, 2011

Change the Weather History Date:

Saturday, October 8, 2011

  Actual Average (K3TH) Record (K3TH)
Temperature  
Mean Temperature 37 °F -  
Max Temperature 43 °F 59 °F 77 °F (1996)
Min Temperature 32 °F 39 °F 32 °F (1997)
Degree Days  
Heating Degree Days 28    
Moisture  
Dew Point 33 °F    
Average Humidity 95    
Maximum Humidity 100    
Minimum Humidity 70    
Precipitation  
Precipitation 0.00 in - - ()
Sea Level Pressure  
Sea Level Pressure 30.15 in    
Wind  
Wind Speed 5 mph (WSW)    
Max Wind Speed 10 mph    
Max Gust Speed -    
Visibility 6 miles    
Events Fog    
Averages and records for this station are not official NWS values.
T = Trace of Precipitation, MM = Missing Value Source: NWS Daily Summary

Daily Weather History Graph

Daily Weather History Graph

Search for Another Location

Airport or City:

Trip Planner

Search our weather history database for the weather conditions in past years. The results will help you decide how hot, cold, wet, or windy it might be!

Date:

Astronomy

Oct. 08, 2011 Rise Set
Actual Time 6:51 AM PDT 6:08 PM PDT
Civil Twilight 6:20 AM PDT 6:39 PM PDT
Nautical Twilight 5:44 AM PDT 7:14 PM PDT
Astronomical Twilight 5:09 AM PDT 7:50 PM PDT
Moon 4:29 PM PDT (10/8) 3:31 AM PDT (10/8)
Length of Visible Light 12h 18m
Length of Day
11h 17m
Waxing Gibbous, 90% of the Moon is Illuminated
Oct 8
Waxing Gibbous
Oct 11
Full
Oct 19
Last Quarter
Oct 26
New
Nov 2
First Quarter

Hourly Weather History & Observations

Time (PDT) Temp. Windchill Dew Point Humidity Pressure Visibility Wind Dir Wind Speed Gust Speed Precip Events Conditions
12:00 AM 35.6 °F 30.7 °F 35.6 °F 100% 30.12 in 0.2 mi NW 5.8 mph - N/A Fog Fog
12:18 AM 35.6 °F 29.9 °F 35.6 °F 100% 30.13 in 0.5 mi NW 6.9 mph - N/A Fog Fog
12:26 AM 35.6 °F 29.9 °F 35.6 °F 100% 30.13 in 0.5 mi NW 6.9 mph - N/A Fog Fog
12:38 AM 33.8 °F 28.6 °F 33.8 °F 100% 30.13 in 1.0 mi NNW 5.8 mph - N/A   Mostly Cloudy
12:51 AM 33.8 °F 28.6 °F 33.8 °F 100% 30.14 in 1.2 mi NW 5.8 mph - N/A   Mostly Cloudy
12:53 AM 34.0 °F 28.0 °F 34.0 °F 100% 30.05 in 1.5 mi NW 6.9 mph - N/A   Mostly Cloudy
1:04 AM 33.8 °F 29.6 °F 33.8 °F 100% 30.14 in 2.5 mi NW 4.6 mph - N/A   Overcast
1:08 AM 33.8 °F 29.6 °F 33.8 °F 100% 30.14 in 3.0 mi NW 4.6 mph - N/A   Overcast
1:22 AM 33.8 °F 30.8 °F 33.8 °F 100% 30.15 in 3.0 mi NW 3.5 mph - N/A   Overcast
1:53 AM 33.1 °F 30.0 °F 33.1 °F 100% 30.08 in 10.0 mi NW 3.5 mph - N/A   Mostly Cloudy
2:01 AM 33.8 °F 29.6 °F 33.8 °F 100% 30.16 in 1.8 mi NW 4.6 mph - N/A   Overcast
2:05 AM 33.8 °F 29.6 °F 33.8 °F 100% 30.16 in 0.8 mi Variable 4.6 mph - N/A   Overcast
2:14 AM 33.8 °F 30.8 °F 33.8 °F 100% 30.16 in 1.8 mi Variable 3.5 mph - N/A   Mostly Cloudy
2:19 AM 32.0 °F - 32.0 °F 100% 30.16 in 2.5 mi Calm Calm - N/A   Mostly Cloudy
2:26 AM 32.0 °F - 32.0 °F 100% 30.16 in 10.0 mi Calm Calm - N/A   Scattered Clouds
2:39 AM 32.0 °F - 32.0 °F 100% 30.16 in 10.0 mi Calm Calm - N/A   Mostly Cloudy
2:53 AM 32.0 °F - 32.0 °F 100% 30.09 in 10.0 mi Calm Calm - N/A   Mostly Cloudy
3:05 AM 32.0 °F - 32.0 °F 100% 30.17 in 10.0 mi Calm Calm - N/A   Scattered Clouds
3:53 AM 33.1 °F 28.7 °F 30.9 °F 92% 30.09 in 10.0 mi WSW 4.6 mph - N/A   Clear
4:53 AM 32.0 °F 26.4 °F 30.9 °F 96% 30.09 in 0.2 mi SW 5.8 mph - N/A Fog Fog
5:19 AM 32.0 °F 25.6 °F 32.0 °F 100% 30.18 in 1.0 mi SW 6.9 mph - N/A   Mist
5:21 AM 32.0 °F 25.6 °F 32.0 °F 100% 30.18 in 2.5 mi SW 6.9 mph - N/A   Scattered Clouds
5:28 AM 32.0 °F 26.4 °F 32.0 °F 100% 30.18 in 10.0 mi SW 5.8 mph - N/A   Scattered Clouds
5:47 AM 32.0 °F 28.7 °F 32.0 °F 100% 30.18 in 1.8 mi South 3.5 mph - N/A   Scattered Clouds
5:49 AM 32.0 °F 26.4 °F 32.0 °F 100% 30.18 in 1.0 mi South 5.8 mph - N/A   Mist
6:08 AM 32.0 °F 26.4 °F 32.0 °F 100% 30.19 in 0.2 mi South 5.8 mph - N/A Fog Fog
6:53 AM 32.0 °F 26.4 °F 32.0 °F 100% 30.12 in 0.5 mi SSW 5.8 mph - N/A Fog Fog
7:07 AM 32.0 °F 27.5 °F 32.0 °F 100% 30.21 in 0.5 mi SSW 4.6 mph - N/A Fog Fog
7:17 AM 32.0 °F 26.4 °F 32.0 °F 100% 30.21 in 0.2 mi SW 5.8 mph - N/A Fog Fog
7:25 AM 32.0 °F 27.5 °F 32.0 °F 100% 30.21 in 1.0 mi SW 4.6 mph - N/A   Mist
7:39 AM 32.0 °F 24.8 °F 32.0 °F 100% 30.21 in 2.0 mi SSW 8.1 mph - N/A   Mostly Cloudy
7:46 AM 32.0 °F 25.6 °F 32.0 °F 100% 30.22 in 8.0 mi Variable 6.9 mph - N/A   Mostly Cloudy
7:53 AM 32.0 °F 26.4 °F 32.0 °F 100% 30.14 in 10.0 mi SW 5.8 mph - N/A   Mostly Cloudy
8:26 AM 32.0 °F 27.5 °F 32.0 °F 100% 30.23 in 10.0 mi WSW 4.6 mph - N/A   Mostly Cloudy
8:53 AM 33.1 °F 30.0 °F 33.1 °F 100% 30.14 in 10.0 mi SW 3.5 mph - N/A   Mostly Cloudy
9:22 AM 33.8 °F 30.8 °F 33.8 °F 100% 30.23 in 10.0 mi Variable 3.5 mph - N/A   Overcast
9:48 AM 33.8 °F - 33.8 °F 100% 30.24 in 10.0 mi Calm Calm - N/A   Overcast
9:53 AM 33.1 °F 28.7 °F 33.1 °F 100% 30.15 in 10.0 mi Variable 4.6 mph - N/A   Overcast
10:11 AM 35.6 °F - 35.6 °F 100% 30.24 in 10.0 mi Calm Calm - N/A   Overcast
10:53 AM 35.1 °F - 34.0 °F 96% 30.15 in 10.0 mi Calm Calm - N/A   Overcast
11:02 AM 33.8 °F 29.6 °F 33.8 °F 100% 30.24 in 10.0 mi SW 4.6 mph - N/A   Mostly Cloudy
11:53 AM 37.9 °F 35.5 °F 33.1 °F 83% 30.14 in 10.0 mi Variable 3.5 mph - N/A   Overcast
12:53 PM 39.0 °F - 33.1 °F 79% 30.14 in 10.0 mi Calm Calm - N/A   Overcast
1:53 PM 37.9 °F 34.4 °F 33.1 °F 83% 30.14 in 10.0 mi Variable 4.6 mph - N/A   Mostly Cloudy
2:53 PM 39.9 °F 37.8 °F 35.1 °F 83% 30.14 in 10.0 mi Variable 3.5 mph - N/A   Mostly Cloudy
3:14 PM 39.2 °F - 33.8 °F 81% 30.23 in 10.0 mi Calm Calm - N/A   Scattered Clouds
3:21 PM 39.2 °F - 33.8 °F 81% 30.23 in 10.0 mi Calm Calm - N/A   Mostly Cloudy
3:53 PM 42.1 °F 39.2 °F 33.1 °F 70% 30.11 in 10.0 mi Variable 4.6 mph - N/A   Overcast
4:14 PM 39.2 °F - 32.0 °F 75% 30.22 in 10.0 mi Calm Calm - N/A   Scattered Clouds
4:53 PM 39.9 °F 36.7 °F 34.0 °F 79% 30.12 in 10.0 mi SW 4.6 mph - N/A   Partly Cloudy
5:53 PM 37.0 °F 33.3 °F 33.1 °F 86% 30.11 in 10.0 mi SSW 4.6 mph - N/A   Partly Cloudy
7:53 PM 37.0 °F 33.3 °F 32.0 °F 82% 30.10 in 10.0 mi SSW 4.6 mph - N/A   Clear
8:53 PM 35.1 °F 32.2 °F 33.1 °F 92% 30.11 in 10.0 mi South 3.5 mph - N/A   Clear
9:53 PM 35.1 °F 30.1 °F 32.0 °F 89% 30.09 in 10.0 mi South 5.8 mph - N/A   Clear
10:53 PM 35.1 °F 29.3 °F 32.0 °F 89% 30.07 in 10.0 mi SSE 6.9 mph - N/A   Clear
11:53 PM 35.1 °F 27.4 °F 32.0 °F 89% 30.04 in 10.0 mi South 10.4 mph - N/A   Clear